OITL

Details ICAO OITL (ADU)
Name ARDABIL
Region Iran
Timezone Asia/Tehran (UTC+4.5)
Plans Departing 5
Arriving 9
Stats Elevation 4,315 ft / 1,315 m (AMSL)
Location 38.325677° 48.424352°
Runways 1
Magnetic Variation 5.645° E
Sunrise 2018-05-24 01:30:10 UTC / 2018-05-24 06:00:10 Local
Sunset 2018-05-24 15:58:58 UTC / 2018-05-24 20:28:58 Local
Advertisement - Login to hide

Runways

ID Width Length Bearing (true) Bearing (mag) Surface Threshold Offset Overrun Length
15 148 ft / 45 m 10,834 ft / 3,302 m 150.01° 144.37° Asphalt 0 ft / 0 m 1,200 ft / 366 m
33 148 ft / 45 m 10,834 ft / 3,302 m 330.03° 324.39° Asphalt 0 ft / 0 m 1,200 ft / 366 m

Approach Navaids

Runway Type Ident Frequency Range Bearing (true) Bearing (mag) Slope Elevation
33 Localiser IARB 109.90 MHz 18 nm / 33 km 329.96° 324.32° - 4,315 ft / 1,315 m (AMSL)
33 Glidescope IARB 109.90 MHz 10 nm / 19 km 330.02° 324.38° 3.00° 4,315 ft / 1,315 m (AMSL)
33 DME IARB 109.90 MHz 18 nm / 33 km - - - 4,315 ft / 1,315 m (AMSL)

Map

Weather


0- 5 10 15 20 25 30 35+ Temperature / ° C

Clouds and Precipitation
Forecast for 2018-05-24 12:00 UTC. Updated 3 hours ago

Ground ~20,000 ft ~40,000 ft Winds

METAR

OITL 241400Z 27006KT 9999 FEW045 BKN050CB BKN090 18/10 Q1017 RESH

TAF

Not found

Frequencies

Recorded 126.65 MHz ATIS
Tower 118.15 MHz INFO
Tower 121.90 MHz INFO
Warning: Do not use this data for real-world aviation or navigation. No guarantee of current accuracy is given.